Location: ?
(35.3436°N, 139.3168°E)
Time: 03:52:19
(UTC+00:00)

ISS - Pass Details

Date: 22 January 2021
Orbit: 417 x 422 km, 51.6° (Epoch: 03 March)

Event Time Altitude Azimuth Distance (km) Brightness Sun altitude
Rises 08:18:36 0° 245° (WSW) 2,358 3.0 -4.3°
Reaches altitude 10° 08:20:48 10° 254° (WSW) 1,498 1.0 -4.7°
Maximum altitude 08:23:56 36° 323° (NW) 679 -2.5 -5.3°
Drops below altitude 10° 08:27:07 10° 33° (NNE) 1,507 -1.4 -5.9°
Enters shadow 08:28:17 - 38° (NE) 1,964 -0.9 -6.1°
